Location: Rometta
(44.2000°N, 10.0500°E)
Time: 16:12:53
(UTC+00:00)

SKYMED 2 - Pass Details

Date: 20 January 2021
Orbit: 621 x 623 km, 97.9° (Epoch: 01 March)

Event Time Altitude Azimuth Distance (km) Brightness Sun altitude
Rises 17:09:05 0° 17° (NNE) 2,914 6.7 -10.0°
Reaches altitude 10° 17:11:20 10° 22° (NNE) 2,002 5.8 -10.4°
Maximum altitude 17:15:36 54° 100° (E) 761 3.7 -11.1°
Drops below altitude 10° 17:19:50 10° 178° (S) 1,985 6.3 -11.8°
Sets 17:22:03 0° 183° (S) 2,886 7.3 -12.2°
